Terminal Aerodrome Forecast
Issued by NWS

Home | Current Version | Previous Version | Graphics & Text | Print | Product List | Glossary On
Versions: 1 2 3 4 5 6 7 8 9 10 11 12 13 14 15
000
FTUS43 KTOP 042009 AAA
TAFFOE
TAF AMD
KFOE 042009Z 0420/0518 13009KT P6SM VCTS SCT050CB BKN100
      TEMPO 0423/0503 VRB14G22KT TSRA BKN030CB
     FM050600 16008KT P6SM SCT060 BKN120
     FM051100 12006KT P6SM VCTS SCT007 BKN035CB=

USA.gov is the U.S. government's official web portal to all federal, state and local government web resources and services.